Location: York
(31.8935°S, 116.7682°E)
Time: 17:02:30
(UTC+08:00)

deb Explorer IX - Pass Details

Date: 28 September 2022
Orbit: 533 x 1057 km, 38.8° (Epoch: 30 November)

Event Time Altitude Azimuth Distance (km) Brightness Sun altitude
Rises 19:49:33 0° 298° (WNW) 3,431 ? -21.0°
Reaches altitude 10° 19:52:16 10° 299° (WNW) 2,409 ? -21.6°
Maximum altitude 19:57:56 84° 26° (NNE) 738 ? -22.7°
Enters shadow 19:58:55 58° 105° (ESE) 827 ? -22.9°
Drops below altitude 10° 20:02:45 10° 113° (ESE) 2,070 - -23.7°
Sets 20:04:57 0° 114° (ESE) 2,914 - -24.1°
